Orbcomm B2

operational
NORAD ID: 25419 Int'l Des: 1998-046 Owner: ORBC Country: US Constellation: orbcomm
LEOCIRCULAR

Orbcomm B2について

説明を読み込み中...

リアルタイム位置

3D地球を読み込み中...

次回通過

高度履歴

Altitude vs Time

uPlot chart will show altitude changes over time

軌道要素

1 25419U 98046G 25278.35177808 .00001979 00000-0 67719-3 0 9990
2 25419 44.9963 12.9657 0003465 164.9578 195.1374 14.39263302420083
Epoch: Oct 5, 2025 • Age: 20 hours

現在のステータス

高度 770.4 km
速度 7.47 km/s
衛星直下点 -27.40°S, 100.77°W
打ち上げ日 Aug 2, 1998
運用期間 27.1 years
タイプ other

技術仕様

分類 Payload
質量 42.00 kg
乾燥質量 42.00 kg
総質量 42.00 kg
長さ 0.20 m
直径 1.00 m
スパン 4.30 m
形状 Cyl + 2 Pan + Ant
製造者 OSCG
バスタイプ Microstar
フェーズステータス Unknown Transfer Status
所有者/国 ORBC/US

大規模コンステレーション

Loading constellations...